CZ-6A DEB, 66790

Orbit data source: Space-Track

CZ-6A DEB, 66790 is space debris in SSO originally from a launch on Fri, 11 Nov 2022 UTC launched from the Taiyaun Space Center, China (TSC). Debris objects in space refer to the collection of defunct objects orbiting the Earth. Examples of debris include non-operational satellites, rocket bodies, and fragments generated from explosions, collisions, or faulty payload assembly.

Loading next visibility...
Identifier
66790, 2022-151AJG
Orbit
SSO
Country
Flag of CNCN / PRC
Related business
Manufacturer
SAST
Mission
Spacecraft
Bus & Motor
Unknown
Mass
Unknown
Launch date (UTC)
2022-11-11 (4 years ago)
Launch vehicle
Unknown
Launch site
Taiyaun Space Center, China (TSC)
Object type
Payload
Rocket body
Debris
Shape & HBR
Unknown shape, 1.1 m
Radar Cross Section
Medium (>0.1 m² and <1 m²)

Expand to show TLE details & history
Last TLE update: 6 days ago

TLE from 6 days ago
0 CZ-6A DEB
1 66790U 22151AJG 26258.46360361  .00001400  00000-0  70371-3 0  9997
2 66790  98.8214 263.9214 0042169  34.1376 326.2497 14.17640817179824
Epoch: 2026-09-15T11:07Z
TLE epoch observation values (Epoch: 2026-09-15T11:07:35.351Z)
Latitude
-0.00012°
Longitude
102.59494°
Altitude
811 km
Speed
7.461 km/s
True Right ascension
17h 35m 41s
True Declination
0° 00' 00"
Sunlit
Object was in daylight at epoch
Visualization orbit readout
Latitude
Unknown
Longitude
Unknown
Altitude
Unknown
Speed
Unknown
Apparent Right ascension
Unknown
Apparent Declination
Unknown
Sunlit
N/A
Visualization observer readout
Local Sidereal Time
13:12:04
Azimuth
Unknown
Elevation
Unknown
Doppler factor
Unknown
Orbital elements
Apogee altitude
860.908 km
Perigee altitude
800.111 km
Semi-major axis
7,208.646 km
Eccentricity
0.00422
Inclination
98.8214°
RAAN
263.9214°
Arg. of periapsis
34.1376°
True anomaly
325.98005°
Mean anomaly
326.2497°
Eccentric anomaly
326.115°
Mean motion
3.54619 °/min
Orbital period
101.52 mins
BSTAR
0.00070371
Loading maneuver chart data...
Computing Atmospheric mass density...
Loading historical data...
Loading historical data...
Loading historical data...
Loading historical data...
Loading historical data...
Loading historical data...
Loading historical data...

Documentation

Showing up to 5 results
|